Simultaneous Nadir Overpasses (SNOs) Predictions

Prediction of SNOs between GOES-15 and NPP Satellite Orbit:

Table of predicted SNOs for the next 14.0 days since TLE Epoch: 12/31/2022
Index Date Time (GOES-15) GOES-15 Lat,Lon NPP Lat,Lon Distance(km) Time Diff (sec)
1 01/01/2023 10:12:48 -0.00,-127.79 0.89,-131.81 458.68 80
2 01/02/2023 09:56:44 0.00,-127.82 -0.13,-127.29 61.07 80
3 01/04/2023 21:59:58 -0.00,-127.82 -0.08,-128.06 27.76 80
4 01/05/2023 21:38:35 -0.01,-127.84 0.95,-123.53 491.42 80
5 01/07/2023 10:00:24 0.01,-127.95 0.22,-128.80 97.17 80
6 01/08/2023 09:44:20 0.01,-127.98 -0.80,-124.27 421.91 80
7 01/09/2023 22:06:19 -0.01,-127.94 -0.35,-129.59 186.66 80
8 01/10/2023 21:44:54 -0.01,-127.97 0.62,-125.05 332.04 80
9 01/12/2023 10:06:44 0.01,-128.07 0.48,-130.33 257.39 80
10 01/13/2023 09:50:40 0.01,-128.09 -0.49,-125.80 261.37 80
